Tracking 22019 objects as of 2-Dec-2020
HD Live streaming from Space Station
objects crossing your sky now

METEOR PRIRODA

Track METEOR PRIRODA now!
10-day predictions
METEOR PRIRODA is classified as:


NORAD ID: 12585
Int'l Code: 1981-065A
Perigee: 498.3 km
Apogee: 516.0 km
Inclination: 97.6 °
Period: 94.6 minutes
Semi major axis: 6878 km
RCS: 4.6163 m2 (large)
Launch date: July 10, 1981
Source: Commonwealth of Independent States (former USSR) (CIS)
Launch site: TYURATAM MISSILE AND SPACE COMPLEX (TTMTR)
aabbcc
Your satellite tracking list
Your tracking list is empty




NASA's NSSDC Master Catalog

Two Line Element Set (TLE):
1 12585U 81065A   20336.73166148  .00001722  00000-0  78651-4 0  9994
2 12585  97.5608 325.9872 0012877 309.0805  50.9284 15.21924519148543
Source of the keplerian elements: AFSPC